Location: SAPM � Hemmingford
(45.0500°N, 73.5833°W)
Time: 18:15:27
(UTC-04:00)

Daily predictions for brighter satellites

Satellite Brightness Start Highest point End
(mag) Time Altitude Azimuth Time Altitude Azimuth Time Altitude Azimuth
Cosmos 2058 3.8 21:17:29 10° SSE 21:21:04 30° E 21:24:39 10° NNE
Cosmos 1151 Rocket 3.0 21:17:41 10° N 21:22:01 85° E 21:26:21 10° S
CZ-4 SHROUD 3.6 21:19:35 10° SSE 21:22:37 49° ENE 21:25:40 10° N
Cosmos 2266 Rocket 4.0 21:20:10 10° S 21:26:27 78° E 21:32:39 10° N
Cosmos 405 3.2 21:22:58 10° NNW 21:26:37 76° W 21:30:13 10° S
Cosmos 1674 2.7 21:24:33 10° S 21:28:23 88° E 21:32:17 10° N
Cosmos 2315 Rocket 4.1 21:23:45 10° N 21:29:56 62° E 21:36:03 10° SSE
CZ-4B R/B 4.2 21:25:54 10° NNE 21:30:46 36° E 21:35:32 10° SSE
H-2A R/B 3.6 21:28:14 10° ESE 21:32:22 23° ENE 21:36:34 10° N
Cosmos 1680 Rocket 3.6 21:27:48 10° NNW 21:33:04 82° WSW 21:38:20 10° SSE
Cosmos 2227 Rocket 3.9 21:30:27 10° SE 21:33:11 14° E 21:35:54 10° ENE
Cosmos 1805 Rocket 4.1 21:30:47 10° SSE 21:34:58 42° E 21:39:11 10° NNE
Cosmos 1300 3.1 21:35:27 10° N 21:39:11 46° ENE 21:42:49 10° SSE
Cosmos 1833 4.5 21:36:14 10° SSW 21:41:57 77° WNW 21:47:39 10° NNE
YAOGAN 6 2.8 21:38:25 10° SSE 21:41:59 58° ENE 21:45:32 10° N
USA 229 DEB 4.1 21:35:37 10° SW 21:42:31 72° NW 21:49:34 10° NE
USA 229 4.1 21:35:43 10° SW 21:42:37 72° NW 21:49:41 10° NE
Tiangong 1 2.5 21:40:20 10° SSW 21:42:40 20° SSE 21:45:01 10° ESE
Cosmos 2333 Rocket 3.3 21:38:55 10° N 21:44:04 33° NE 21:49:13 10° ESE
SL-16 R/B 4.3 21:40:49 10° N 21:44:17 16° NE 21:47:46 10° E
SPOT 1/Viking Rocket 3.7 21:39:22 10° SSE 21:44:24 59° ENE 21:49:29 10° N
Cosmos 1898 Rocket 4.1 21:43:25 10° SSE 21:48:09 37° ESE 21:52:56 10° NE
Cosmos 1939 Rocket 4.2 21:47:41 10° SSW 21:51:20 36° W 21:54:57 10° NNW
Cosmos 1707 Rocket 3.6 21:47:16 10° N 21:51:38 67° E 21:55:46 11° SSE
H-2A R/B 3.4 21:47:29 10° SSW 21:51:43 39° W 21:55:59 10° NNW
Cosmos 2150 Rocket 4.4 21:50:12 10° S 21:55:21 46° ESE 22:00:34 10° NNE
COSMOS 2428 2.7 21:50:23 10° NNW 21:56:06 89° ENE 22:01:17 13° SSE
Cosmos 1666 Rocket 3.8 21:53:12 10° S 21:57:29 54° E 22:01:49 10° NNE
MetOp-A 4.3 21:52:33 10° S 21:57:53 76° WSW 22:03:17 10° NNW
SPOT 5 3.4 21:54:16 10° S 21:58:46 57° W 22:03:34 10° NNW
Cosmos 2297 Rocket 3.8 21:57:44 13° SE 22:00:07 16° E 22:03:27 10° ENE
Cosmos 1455 3.8 21:58:41 10° NNE 22:01:37 21° ENE 22:03:46 14° ESE
BREEZE-M DEB (TANK) 2.8 22:00:02 10° WNW 22:01:57 38° NNE 22:04:23 10° E
NOSS 3-1 (A) 3.6 21:56:21 10° SSW 22:02:00 50° ESE 22:08:15 10° NE
PSLV R/B 4.4 22:01:04 10° S 22:03:57 37° W 22:06:50 10° NNW
Cosmos 2219 Rocket 2.5 21:58:53 10° NNW 22:04:23 55° ENE 22:08:52 15° SE
ARGOS 3.2 21:59:31 12° SSE 22:04:30 75° ENE 22:09:54 10° N
Cosmos 1745 Rocket 4.4 22:02:35 12° SSE 22:07:56 44° E 22:13:43 10° NNE
Cosmos 1470 Rocket 4.5 22:08:34 17° SE 22:11:08 30° E 22:14:55 10° NNE
NOSS 0 Rocket 4.1 22:10:28 10° NNW 22:16:37 64° ENE 22:21:19 18° SE
Cosmos 1726 2.3 22:16:42 10° NNW 22:20:28 71° W 22:23:25 16° S
Cosmos 1980 4.0 22:17:45 10° NNW 22:23:20 57° ENE 22:27:20 19° SE
ATLAS 2AS CENTAUR R/B 3.6 22:18:20 11° S 22:24:36 35° ESE 22:31:37 10° NE
USA 32 4.0 22:19:46 10° N 22:25:03 80° E 22:29:09 17° S
CZ-4C R/B 3.0 22:24:04 23° SSE 22:26:06 73° ENE 22:29:35 10° N
Cosmos 292 Rocket 3.7 22:22:45 10° NNW 22:27:33 87° WSW 22:30:47 21° SSE
Landsat 7 3.8 22:27:03 20° SSE 22:30:25 80° ENE 22:35:12 10° NNW
Cosmos 2219 3.9 22:25:05 10° SW 22:30:45 59° WNW 22:36:27 10° NNE
ERBS 3.4 22:32:03 26° SE 22:32:03 26° SE 22:34:51 10° ENE
Cosmos 2237 Rocket 2.4 22:30:16 10° NNW 22:35:58 65° ENE 22:39:42 22° SE
Cosmos 1271 Rocket 2.9 22:33:52 10° NNW 22:37:42 69° W 22:40:05 22° S
ATLAS 3B R/B 3.4 22:31:39 10° NNW 22:38:33 48° NE 22:44:01 15° ESE
Meteor 2-10 4.2 22:33:14 10° N 22:38:59 90° ENE 22:43:05 20° S
Cosmos 2082 4.0 22:38:00 17° S 22:42:08 48° ESE 22:47:38 10° NE
Meteor 1-4 Rocket 3.2 22:39:33 10° NNW 22:43:14 52° W 22:45:29 21° SSW
Cosmos 2242 Rocket 4.0 22:39:07 10° NNW 22:43:32 59° W 22:46:44 18° S
Cosmos 1703 3.3 22:41:15 18° SSW 22:44:03 81° W 22:47:59 10° N
SL-14 R/B 4.3 22:40:35 10° SSW 22:44:22 44° WNW 22:48:15 10° N
Cosmos 1346 3.2 22:45:04 40° SSE 22:45:50 56° E 22:48:50 10° NNE
Terra 1.8 22:43:25 24° SSE 22:46:16 81° ENE 22:51:04 10° NNW
Cosmos 2360 Rocket 4.4 22:43:01 10° WNW 22:46:42 18° W 22:50:25 10° SW
Cosmos 1937 Rocket 3.4 22:41:40 10° SSW 22:46:55 88° ESE 22:52:09 10° NNE
NOSS 3-1 (C) 3.8 22:42:42 10° SW 22:48:37 69° NW 22:55:17 10° NE
Iridium 2 3.8 22:47:14 22° S 22:49:37 76° W 22:53:30 10° N
Spot 4 3.9 22:47:26 26° SSE 22:50:09 70° ENE 22:55:01 10° N
Cosmos 1862 Rocket 3.5 22:46:02 10° N 22:50:24 76° E 22:52:33 29° SSE
Lacrosse 4 Rocket 2.8 22:46:48 10° NNW 22:50:48 33° NE 22:53:24 18° ESE
CARTOSAT-1 3.5 22:51:08 27° S 22:53:29 82° W 22:57:49 10° NNW
Sich 1 4.1 22:49:17 10° SSW 22:53:30 44° WNW 22:57:43 10° N
FALCON 9 R/B 4.0 22:31:15 10° WSW 22:55:20 49° SSW 23:00:30 20° SE
Cosmos 1633 Rocket 4.2 22:53:02 10° SSW 22:57:12 42° WNW 23:01:22 10° N
Cosmos 990 Rocket 3.9 22:53:44 16° SSW 22:57:48 79° ESE 23:02:58 10° NNE
Cosmos 1626 2.0 23:01:02 33° S 23:02:39 86° E 23:06:26 10° N
OAO 2 Rocket 4.4 22:59:11 10° SW 23:03:20 26° S 23:03:20 26° S
COSMOS 2455 3.1 23:00:39 10° NNW 23:06:39 62° NE 23:10:13 25° SE
H-2A R/B 2.6 23:08:02 23° S 23:11:21 57° W 23:16:44 10° NNW
Cosmos 1269 Rocket 4.2 23:06:12 10° NNW 23:11:30 65° ENE 23:14:03 30° SE
Cosmos 2227 Rocket 2.2 23:11:30 14° SSW 23:16:23 89° WNW 23:22:05 10° NNE
Cosmos 1933 3.5 23:13:45 10° N 23:17:48 63° E 23:18:58 42° SE
Tiangong 1 2.7 23:15:53 10° WSW 23:17:13 22° WSW 23:17:13 22° WSW
Cosmos 1869 Rocket 4.2 23:19:15 35° SE 23:20:24 42° E 23:24:39 10° NNE
H-2A R/B 4.3 23:19:50 10° NE 23:22:41 17° E 23:22:51 17° E
BREEZE-M DEB (TANK) 4.0 23:11:28 10° WNW 23:25:23 65° N 23:29:10 10° E
GEOS 3 Rocket 4.5 23:21:56 18° ESE 23:25:33 44° NE 23:30:27 10° NNW
Cosmos 2333 Rocket 2.9 23:23:03 10° NW 23:28:29 44° WSW 23:31:18 26° SSW
Cosmos 389 Rocket 3.2 23:25:57 10° N 23:29:20 38° ENE 23:29:47 37° E
SL-16 R/B 2.2 23:23:41 10° NNW 23:29:24 78° ENE 23:32:01 34° SE
SeaSat 1 2.8 23:29:32 30° ESE 23:31:49 58° ENE 23:36:40 10° NNW
ALOS 2 3.9 23:31:51 23° ESE 23:33:23 29° ENE 23:37:12 10° N
Cosmos 1048 Rocket 4.0 23:29:44 10° NNW 23:35:08 82° ENE 23:37:19 37° SSE
Cosmos 1125 Rocket 3.5 23:33:30 33° S 23:35:56 74° ESE 23:41:15 10° NNE
Cosmos 1455 3.7 23:34:04 10° NNW 23:37:22 28° W 23:38:49 22° SW
CZ-4B R/B 3.3 23:36:58 20° E 23:37:31 21° ENE 23:40:08 10° NNE
ASTEX 1 4.5 23:39:08 10° NNE 23:43:25 30° E 23:44:32 27° ESE
Cosmos 2297 Rocket 2.3 23:39:29 20° SSW 23:43:26 78° WNW 23:49:07 10° NNE
Okean 1-7 3.0 23:40:12 10° N 23:44:29 70° E 23:45:28 50° SE
NOSS 2-3 (D) 4.3 23:46:30 41° SSE 23:47:30 47° ESE 23:52:53 10° NE
Cosmos 2219 Rocket 3.8 23:43:36 10° NW 23:47:55 23° WSW 23:50:35 17° SW
Cosmos 1703 Rocket 3.8 23:47:04 10° NNW 23:51:23 61° W 23:52:36 43° SSW
